Time,TemperatureF,DewpointF,PressureIn,WindDirection,WindDirectionDegrees,WindSpeedMPH,WindSpeedGustMPH,Humidity,HourlyPrecipIn,Conditions,Clouds,dailyrainin,SoftwareType,DateUTC
2013-06-29 00:01:00,62.3,61.7,29.51,ENE,62,0.0,0.0,98,0.00,,,0.00,Wunderground v.1.15,2013-06-29 04:01:00,
2013-06-29 00:03:00,62.3,61.7,29.51,ENE,62,0.0,0.0,98,0.00,,,0.00,Wunderground v.1.15,2013-06-29 04:03:00,
2013-06-29 00:04:00,62.4,61.8,29.51,ENE,62,0.0,0.0,98,0.00,,,0.00,Wunderground v.1.15,2013-06-29 04:04:00,
2013-06-29 00:05:00,62.4,61.8,29.51,ENE,62,0.0,0.0,98,0.00,,,0.00,Wunderground v.1.15,2013-06-29 04:05:00,
2013-06-29 00:06:00,62.3,61.7,29.51,ENE,62,0.0,0.0,98,0.00,,,0.00,Wunderground v.1.15,2013-06-29 04:06:00,
2013-06-29 00:12:00,62.4,61.8,29.51,ENE,62,0.0,0.0,98,0.00,,,0.00,Wunderground v.1.15,2013-06-29 04:12:00,
2013-06-29 00:18:00,62.4,61.8,29.50,ENE,62,0.0,0.0,98,0.00,,,0.00,Wunderground v.1.15,2013-06-29 04:18:00,
2013-06-29 00:23:00,62.5,61.9,29.50,North,5,3.0,3.0,98,0.00,,,0.01,Wunderground v.1.15,2013-06-29 04:23:00,
2013-06-29 00:28:00,62.5,61.9,29.50,NE,52,1.0,3.0,98,0.00,,,0.01,Wunderground v.1.15,2013-06-29 04:28:00,
2013-06-29 00:33:00,62.5,61.9,29.50,NE,52,1.0,2.0,98,0.00,,,0.01,Wunderground v.1.15,2013-06-29 04:33:00,
2013-06-29 00:38:00,62.4,61.8,29.50,NE,52,0.0,2.0,98,0.00,,,0.01,Wunderground v.1.15,2013-06-29 04:38:00,
2013-06-29 00:44:00,62.4,61.8,29.49,NE,52,0.0,2.0,98,0.00,,,0.01,Wunderground v.1.15,2013-06-29 04:44:00,
2013-06-29 00:49:00,62.3,61.7,29.49,NE,52,0.0,1.0,98,0.00,,,0.01,Wunderground v.1.15,2013-06-29 04:49:00,
2013-06-29 00:54:00,62.3,61.7,29.49,NE,52,0.0,1.0,98,0.00,,,0.01,Wunderground v.1.15,2013-06-29 04:54:00,
2013-06-29 00:59:00,62.3,61.7,29.49,NE,52,0.0,0.0,98,0.00,,,0.01,Wunderground v.1.15,2013-06-29 04:59:00,
2013-06-29 01:05:00,62.2,61.6,29.49,NE,52,0.0,0.0,98,0.00,,,0.01,Wunderground v.1.15,2013-06-29 05:05:00,
2013-06-29 01:10:00,62.2,61.6,29.49,NE,52,0.0,0.0,98,0.00,,,0.01,Wunderground v.1.15,2013-06-29 05:10:00,
2013-06-29 01:15:00,62.2,61.6,29.49,NE,52,0.0,0.0,98,0.00,,,0.01,Wunderground v.1.15,2013-06-29 05:15:00,
2013-06-29 01:20:00,62.2,61.6,29.49,NE,52,0.0,0.0,98,0.00,,,0.01,Wunderground v.1.15,2013-06-29 05:20:00,
2013-06-29 01:25:00,62.1,61.5,29.49,NE,52,0.0,0.0,98,0.00,,,0.01,Wunderground v.1.15,2013-06-29 05:25:00,
2013-06-29 01:30:00,62.1,61.5,29.49,NE,52,0.0,0.0,98,0.00,,,0.01,Wunderground v.1.15,2013-06-29 05:30:00,
2013-06-29 01:36:00,62.1,61.5,29.49,NE,52,0.0,0.0,98,0.00,,,0.01,Wunderground v.1.15,2013-06-29 05:36:00,
2013-06-29 01:41:00,62.2,61.6,29.49,NE,52,0.0,0.0,98,0.00,,,0.01,Wunderground v.1.15,2013-06-29 05:41:00,
2013-06-29 01:46:00,62.1,61.5,29.49,NE,52,0.0,0.0,98,0.00,,,0.01,Wunderground v.1.15,2013-06-29 05:46:00,
2013-06-29 01:51:00,62.2,61.6,29.49,NE,52,0.0,0.0,98,0.00,,,0.01,Wunderground v.1.15,2013-06-29 05:51:00,
2013-06-29 01:57:00,62.2,61.6,29.49,NE,52,0.0,0.0,98,0.00,,,0.01,Wunderground v.1.15,2013-06-29 05:57:00,
2013-06-29 02:02:00,62.2,61.6,29.49,NE,52,0.0,0.0,98,0.00,,,0.01,Wunderground v.1.15,2013-06-29 06:02:00,
2013-06-29 02:07:00,62.2,61.6,29.48,NE,52,0.0,0.0,98,0.00,,,0.01,Wunderground v.1.15,2013-06-29 06:07:00,
2013-06-29 02:12:00,62.3,61.7,29.48,NE,52,1.0,1.0,98,0.00,,,0.02,Wunderground v.1.15,2013-06-29 06:12:00,
2013-06-29 02:17:00,62.3,61.7,29.48,NE,52,2.0,3.0,98,0.11,,,0.03,Wunderground v.1.15,2013-06-29 06:17:00,
2013-06-29 02:22:00,62.4,61.8,29.48,NE,52,2.0,3.0,98,0.07,,,0.03,Wunderground v.1.15,2013-06-29 06:22:00,
2013-06-29 02:27:00,62.4,61.8,29.48,NE,52,0.0,4.0,98,0.06,,,0.04,Wunderground v.1.15,2013-06-29 06:27:00,
2013-06-29 02:32:00,62.4,61.8,29.48,NE,52,1.0,1.0,98,0.06,,,0.04,Wunderground v.1.15,2013-06-29 06:32:00,
2013-06-29 02:37:00,62.4,61.8,29.48,NE,52,0.0,1.0,98,0.05,,,0.04,Wunderground v.1.15,2013-06-29 06:37:00,
2013-06-29 02:42:00,62.4,61.8,29.48,NE,52,0.0,0.0,98,0.00,,,0.04,Wunderground v.1.15,2013-06-29 06:42:00,
2013-06-29 02:47:00,62.4,61.8,29.48,NE,52,0.0,0.0,98,0.00,,,0.04,Wunderground v.1.15,2013-06-29 06:47:00,
2013-06-29 02:52:00,62.4,61.8,29.48,NE,52,0.0,0.0,98,0.00,,,0.04,Wunderground v.1.15,2013-06-29 06:52:00,
2013-06-29 02:57:00,62.4,61.8,29.48,NE,52,0.0,0.0,98,0.00,,,0.04,Wunderground v.1.15,2013-06-29 06:57:00,
2013-06-29 03:02:00,62.4,61.8,29.48,NE,52,0.0,1.0,98,0.00,,,0.05,Wunderground v.1.15,2013-06-29 07:02:00,
2013-06-29 03:07:00,62.3,61.7,29.48,NE,52,0.0,2.0,98,0.08,,,0.06,Wunderground v.1.15,2013-06-29 07:07:00,
2013-06-29 03:12:00,62.3,61.7,29.48,NE,52,0.0,0.0,98,0.15,,,0.07,Wunderground v.1.15,2013-06-29 07:12:00,
2013-06-29 03:17:00,62.3,61.7,29.48,NE,52,0.0,1.0,98,0.12,,,0.08,Wunderground v.1.15,2013-06-29 07:17:00,
2013-06-29 03:22:00,62.3,61.7,29.48,NE,52,0.0,0.0,98,0.10,,,0.09,Wunderground v.1.15,2013-06-29 07:22:00,
2013-06-29 03:27:00,62.3,61.7,29.48,NE,52,0.0,0.0,98,0.06,,,0.09,Wunderground v.1.15,2013-06-29 07:27:00,
2013-06-29 03:32:00,62.3,61.7,29.47,NE,52,2.0,2.0,98,0.06,,,0.10,Wunderground v.1.15,2013-06-29 07:32:00,
2013-06-29 03:37:00,62.2,61.6,29.47,NE,52,0.0,3.0,98,0.06,,,0.10,Wunderground v.1.15,2013-06-29 07:37:00,
2013-06-29 03:42:00,62.2,61.6,29.47,NE,52,1.0,2.0,98,0.04,,,0.10,Wunderground v.1.15,2013-06-29 07:42:00,
2013-06-29 03:47:00,62.3,61.7,29.47,NE,52,1.0,2.0,98,0.00,,,0.10,Wunderground v.1.15,2013-06-29 07:47:00,
2013-06-29 03:52:00,62.2,61.6,29.47,NE,52,0.0,0.0,98,0.00,,,0.10,Wunderground v.1.15,2013-06-29 07:52:00,
2013-06-29 03:58:00,62.2,61.6,29.47,NE,52,0.0,1.0,98,0.00,,,0.10,Wunderground v.1.15,2013-06-29 07:58:00,
2013-06-29 04:03:00,62.1,61.5,29.47,NE,52,0.0,1.0,98,0.00,,,0.10,Wunderground v.1.15,2013-06-29 08:03:00,
2013-06-29 04:08:00,62.1,61.5,29.47,NE,52,0.0,1.0,98,0.00,,,0.10,Wunderground v.1.15,2013-06-29 08:08:00,
2013-06-29 04:13:00,62.1,61.5,29.48,NE,52,0.0,0.0,98,0.00,,,0.10,Wunderground v.1.15,2013-06-29 08:13:00,
2013-06-29 04:18:00,62.1,61.5,29.47,NE,52,0.0,0.0,98,0.00,,,0.10,Wunderground v.1.15,2013-06-29 08:18:00,
2013-06-29 04:23:00,62.1,61.5,29.47,NE,52,0.0,2.0,98,0.00,,,0.10,Wunderground v.1.15,2013-06-29 08:23:00,
2013-06-29 04:28:00,62.1,61.5,29.47,NE,52,1.0,2.0,98,0.00,,,0.10,Wunderground v.1.15,2013-06-29 08:28:00,
2013-06-29 04:33:00,62.2,61.6,29.48,NE,52,0.0,0.0,98,0.00,,,0.10,Wunderground v.1.15,2013-06-29 08:33:00,
2013-06-29 04:38:00,62.2,61.6,29.48,NE,52,0.0,1.0,98,0.00,,,0.10,Wunderground v.1.15,2013-06-29 08:38:00,
2013-06-29 04:43:00,62.2,61.6,29.48,NE,52,0.0,1.0,98,0.00,,,0.10,Wunderground v.1.15,2013-06-29 08:43:00,
2013-06-29 04:48:00,62.2,61.9,29.48,NE,52,0.0,1.0,99,0.00,,,0.10,Wunderground v.1.15,2013-06-29 08:48:00,
2013-06-29 04:53:00,62.2,61.9,29.48,NE,52,0.0,0.0,99,0.00,,,0.10,Wunderground v.1.15,2013-06-29 08:53:00,
2013-06-29 04:58:00,62.3,62.0,29.48,NE,52,0.0,0.0,99,0.00,,,0.10,Wunderground v.1.15,2013-06-29 08:58:00,
2013-06-29 05:03:00,62.2,61.6,29.48,NE,52,0.0,1.0,98,0.00,,,0.10,Wunderground v.1.15,2013-06-29 09:03:00,
2013-06-29 05:08:00,62.2,61.6,29.48,NE,52,2.0,2.0,98,0.00,,,0.10,Wunderground v.1.15,2013-06-29 09:08:00,
2013-06-29 05:13:00,62.2,61.9,29.48,NE,52,0.0,1.0,99,0.00,,,0.10,Wunderground v.1.15,2013-06-29 09:13:00,
2013-06-29 05:18:00,62.2,61.9,29.48,NE,52,0.0,1.0,99,0.00,,,0.10,Wunderground v.1.15,2013-06-29 09:18:00,
2013-06-29 05:23:00,62.2,61.9,29.48,NE,52,0.0,1.0,99,0.00,,,0.10,Wunderground v.1.15,2013-06-29 09:23:00,
2013-06-29 05:28:00,62.2,61.6,29.48,NE,52,0.0,1.0,98,0.00,,,0.10,Wunderground v.1.15,2013-06-29 09:28:00,
2013-06-29 05:33:00,62.3,62.0,29.48,NE,52,0.0,1.0,99,0.00,,,0.10,Wunderground v.1.15,2013-06-29 09:33:00,
2013-06-29 05:38:00,62.3,62.0,29.48,NE,52,0.0,1.0,99,0.00,,,0.10,Wunderground v.1.15,2013-06-29 09:38:00,
2013-06-29 05:43:00,62.3,62.0,29.48,NE,52,0.0,1.0,99,0.00,,,0.10,Wunderground v.1.15,2013-06-29 09:43:00,
2013-06-29 05:48:00,62.3,62.0,29.49,NE,52,0.0,1.0,99,0.00,,,0.10,Wunderground v.1.15,2013-06-29 09:48:00,
2013-06-29 05:53:00,62.3,62.0,29.48,NE,52,0.0,3.0,99,0.00,,,0.10,Wunderground v.1.15,2013-06-29 09:53:00,
2013-06-29 05:58:00,62.3,62.0,29.49,NE,53,0.0,3.0,99,0.00,,,0.10,Wunderground v.1.15,2013-06-29 09:58:00,
2013-06-29 06:03:00,62.3,62.0,29.49,NE,53,1.0,2.0,99,0.00,,,0.10,Wunderground v.1.15,2013-06-29 10:03:00,
2013-06-29 06:08:00,62.3,62.0,29.49,NE,53,0.0,2.0,99,0.00,,,0.10,Wunderground v.1.15,2013-06-29 10:08:00,
2013-06-29 06:13:00,62.3,62.0,29.49,NE,53,3.0,3.0,99,0.00,,,0.10,Wunderground v.1.15,2013-06-29 10:13:00,
2013-06-29 06:18:00,62.3,62.0,29.49,NE,53,0.0,3.0,99,0.00,,,0.10,Wunderground v.1.15,2013-06-29 10:18:00,
2013-06-29 06:23:00,62.3,62.0,29.49,NE,53,0.0,2.0,99,0.00,,,0.10,Wunderground v.1.15,2013-06-29 10:23:00,
2013-06-29 06:28:00,62.4,62.1,29.49,NE,53,0.0,2.0,99,0.00,,,0.10,Wunderground v.1.15,2013-06-29 10:28:00,
2013-06-29 06:33:00,62.5,62.2,29.49,NE,53,0.0,2.0,99,0.00,,,0.10,Wunderground v.1.15,2013-06-29 10:33:00,
2013-06-29 06:38:00,62.5,62.2,29.50,NE,53,0.0,2.0,99,0.00,,,0.10,Wunderground v.1.15,2013-06-29 10:38:00,
2013-06-29 06:43:00,62.5,62.2,29.50,NE,53,0.0,0.0,99,0.00,,,0.10,Wunderground v.1.15,2013-06-29 10:43:00,
2013-06-29 06:48:00,62.6,62.3,29.49,NE,53,2.0,2.0,99,0.00,,,0.10,Wunderground v.1.15,2013-06-29 10:48:00,
2013-06-29 06:53:00,62.6,62.0,29.49,NE,53,0.0,2.0,98,0.00,,,0.10,Wunderground v.1.15,2013-06-29 10:53:00,
2013-06-29 06:58:00,62.6,62.3,29.50,NE,53,4.0,4.0,99,0.00,,,0.10,Wunderground v.1.15,2013-06-29 10:58:00,
2013-06-29 07:03:00,62.6,62.0,29.50,ENE,77,0.0,3.0,98,0.00,,,0.10,Wunderground v.1.15,2013-06-29 11:03:00,
2013-06-29 07:08:00,62.6,62.0,29.50,ENE,77,3.0,3.0,98,0.00,,,0.10,Wunderground v.1.15,2013-06-29 11:08:00,
2013-06-29 07:13:00,62.6,62.0,29.50,NE,37,0.0,3.0,98,0.00,,,0.10,Wunderground v.1.15,2013-06-29 11:13:00,
2013-06-29 07:18:00,62.6,62.0,29.50,NE,51,0.0,3.0,98,0.00,,,0.10,Wunderground v.1.15,2013-06-29 11:18:00,
2013-06-29 07:23:00,62.6,62.0,29.50,NE,51,0.0,1.0,98,0.00,,,0.10,Wunderground v.1.15,2013-06-29 11:23:00,
2013-06-29 07:28:00,62.6,62.0,29.50,NE,51,0.0,2.0,98,0.81,,,0.13,Wunderground v.1.15,2013-06-29 11:28:00,
2013-06-29 07:34:00,62.6,62.0,29.50,NE,51,3.0,3.0,98,0.62,,,0.20,Wunderground v.1.15,2013-06-29 11:34:00,
2013-06-29 07:39:00,62.7,62.1,29.50,NE,51,2.0,3.0,98,0.63,,,0.25,Wunderground v.1.15,2013-06-29 11:39:00,
2013-06-29 07:44:00,62.7,62.1,29.50,NE,51,0.0,1.0,98,0.43,,,0.28,Wunderground v.1.15,2013-06-29 11:44:00,
2013-06-29 07:49:00,62.7,62.1,29.50,NE,51,0.0,3.0,98,0.31,,,0.31,Wunderground v.1.15,2013-06-29 11:49:00,
2013-06-29 07:54:00,62.8,62.2,29.51,NE,51,0.0,1.0,98,0.20,,,0.33,Wunderground v.1.15,2013-06-29 11:54:00,
2013-06-29 07:59:00,62.8,62.2,29.50,NE,51,1.0,1.0,98,0.82,,,0.36,Wunderground v.1.15,2013-06-29 11:59:00,
2013-06-29 08:04:00,62.9,62.3,29.50,NE,51,0.0,2.0,98,0.21,,,0.38,Wunderground v.1.15,2013-06-29 12:04:00,
2013-06-29 08:09:00,62.9,62.6,29.51,NE,51,0.0,2.0,99,0.21,,,0.40,Wunderground v.1.15,2013-06-29 12:09:00,
2013-06-29 08:14:00,62.9,62.6,29.51,NE,51,0.0,0.0,99,0.33,,,0.42,Wunderground v.1.15,2013-06-29 12:14:00,
2013-06-29 08:19:00,62.9,62.6,29.51,NE,51,0.0,1.0,99,0.22,,,0.44,Wunderground v.1.15,2013-06-29 12:19:00,
2013-06-29 08:24:00,62.9,62.6,29.51,NE,51,2.0,3.0,99,0.13,,,0.46,Wunderground v.1.15,2013-06-29 12:24:00,
2013-06-29 08:29:00,62.9,62.6,29.51,North,5,3.0,3.0,99,0.14,,,0.47,Wunderground v.1.15,2013-06-29 12:29:00,
2013-06-29 08:34:00,62.9,62.6,29.51,NNE,16,1.0,5.0,99,0.18,,,0.48,Wunderground v.1.15,2013-06-29 12:34:00,
2013-06-29 08:39:00,62.9,62.6,29.51,NNE,16,3.0,5.0,99,0.09,,,0.49,Wunderground v.1.15,2013-06-29 12:39:00,
2013-06-29 08:44:00,63.0,62.7,29.51,NNE,16,1.0,3.0,99,0.13,,,0.50,Wunderground v.1.15,2013-06-29 12:44:00,
2013-06-29 08:49:00,63.1,62.8,29.51,NNE,16,0.0,3.0,99,0.14,,,0.51,Wunderground v.1.15,2013-06-29 12:49:00,
2013-06-29 08:54:00,63.2,62.9,29.51,NNE,16,1.0,2.0,99,0.14,,,0.52,Wunderground v.1.15,2013-06-29 12:54:00,
2013-06-29 08:59:00,63.3,63.0,29.51,NNE,24,2.0,4.0,99,0.07,,,0.52,Wunderground v.1.15,2013-06-29 12:59:00,
2013-06-29 09:04:00,63.4,63.1,29.51,NNE,24,2.0,4.0,99,0.04,,,0.52,Wunderground v.1.15,2013-06-29 13:04:00,
2013-06-29 09:09:00,63.4,63.1,29.51,NE,42,4.0,4.0,99,0.00,,,0.52,Wunderground v.1.15,2013-06-29 13:09:00,
2013-06-29 09:14:00,63.5,63.2,29.51,NE,42,2.0,4.0,99,0.00,,,0.52,Wunderground v.1.15,2013-06-29 13:14:00,
2013-06-29 09:19:00,63.7,63.4,29.51,ENE,60,1.0,2.0,99,0.00,,,0.53,Wunderground v.1.15,2013-06-29 13:19:00,
2013-06-29 09:24:00,63.8,63.5,29.51,ENE,60,0.0,3.0,99,0.00,,,0.53,Wunderground v.1.15,2013-06-29 13:24:00,
2013-06-29 09:29:00,63.7,63.4,29.51,ENE,60,3.0,3.0,99,0.00,,,0.53,Wunderground v.1.15,2013-06-29 13:29:00,
2013-06-29 09:34:00,63.8,63.5,29.51,ENE,60,1.0,3.0,99,0.00,,,0.53,Wunderground v.1.15,2013-06-29 13:34:00,
2013-06-29 09:39:00,63.9,63.6,29.51,ENE,60,0.0,3.0,99,0.00,,,0.53,Wunderground v.1.15,2013-06-29 13:39:00,
2013-06-29 09:44:00,63.9,63.6,29.51,ENE,60,0.0,0.0,99,0.00,,,0.53,Wunderground v.1.15,2013-06-29 13:44:00,
2013-06-29 09:49:00,63.8,63.2,29.51,ENE,60,0.0,0.0,98,0.00,,,0.53,Wunderground v.1.15,2013-06-29 13:49:00,
2013-06-29 09:54:00,63.8,63.5,29.51,ENE,60,0.0,1.0,99,0.00,,,0.54,Wunderground v.1.15,2013-06-29 13:54:00,
2013-06-29 09:59:00,64.1,63.8,29.52,ENE,60,0.0,0.0,99,0.00,,,0.54,Wunderground v.1.15,2013-06-29 13:59:00,
2013-06-29 10:04:00,64.1,63.8,29.52,ENE,60,0.0,0.0,99,0.05,,,0.55,Wunderground v.1.15,2013-06-29 14:04:00,
2013-06-29 10:09:00,64.1,63.8,29.51,ENE,60,0.0,0.0,99,0.05,,,0.55,Wunderground v.1.15,2013-06-29 14:09:00,
2013-06-29 10:14:00,64.3,64.0,29.52,ENE,60,0.0,0.0,99,0.06,,,0.56,Wunderground v.1.15,2013-06-29 14:14:00,
2013-06-29 10:19:00,64.6,64.3,29.52,ENE,60,1.0,1.0,99,0.06,,,0.56,Wunderground v.1.15,2013-06-29 14:19:00,
2013-06-29 10:24:00,64.8,64.5,29.52,ENE,60,0.0,2.0,99,0.05,,,0.56,Wunderground v.1.15,2013-06-29 14:24:00,
2013-06-29 10:29:00,64.8,64.5,29.51,ENE,60,0.0,1.0,99,0.04,,,0.57,Wunderground v.1.15,2013-06-29 14:29:00,
2013-06-29 10:34:00,64.9,64.6,29.51,NNE,19,3.0,4.0,99,0.04,,,0.57,Wunderground v.1.15,2013-06-29 14:34:00,
2013-06-29 10:39:00,65.0,64.7,29.51,NNE,19,2.0,2.0,99,0.04,,,0.57,Wunderground v.1.15,2013-06-29 14:39:00,
2013-06-29 10:44:00,65.1,64.5,29.51,NNE,19,3.0,3.0,98,0.04,,,0.57,Wunderground v.1.15,2013-06-29 14:44:00,
2013-06-29 10:49:00,65.2,64.6,29.51,NNE,19,1.0,2.0,98,0.00,,,0.57,Wunderground v.1.15,2013-06-29 14:49:00,
2013-06-29 10:54:00,65.3,64.7,29.51,NNE,19,1.0,2.0,98,0.00,,,0.57,Wunderground v.1.15,2013-06-29 14:54:00,
2013-06-29 11:00:00,65.6,65.3,29.51,NNE,19,1.0,1.0,99,0.00,,,0.57,Wunderground v.1.15,2013-06-29 15:00:00,
2013-06-29 11:05:00,65.8,65.2,29.51,NE,50,1.0,3.0,98,0.00,,,0.57,Wunderground v.1.15,2013-06-29 15:05:00,
2013-06-29 11:10:00,66.1,65.5,29.51,NE,37,3.0,4.0,98,0.00,,,0.57,Wunderground v.1.15,2013-06-29 15:10:00,
2013-06-29 11:15:00,66.2,65.6,29.51,ENE,65,1.0,4.0,98,0.00,,,0.57,Wunderground v.1.15,2013-06-29 15:15:00,
2013-06-29 11:20:00,66.4,65.8,29.51,North,5,0.0,2.0,98,0.00,,,0.57,Wunderground v.1.15,2013-06-29 15:20:00,
2013-06-29 11:25:00,66.6,66.0,29.51,NNE,21,0.0,3.0,98,0.00,,,0.57,Wunderground v.1.15,2013-06-29 15:25:00,
2013-06-29 11:30:00,66.7,65.8,29.51,NNE,21,0.0,1.0,97,0.00,,,0.57,Wunderground v.1.15,2013-06-29 15:30:00,
2013-06-29 11:35:00,66.5,65.6,29.51,NNE,15,0.0,4.0,97,0.00,,,0.57,Wunderground v.1.15,2013-06-29 15:35:00,
2013-06-29 11:40:00,66.9,66.0,29.51,NNE,15,1.0,2.0,97,0.00,,,0.57,Wunderground v.1.15,2013-06-29 15:40:00,
2013-06-29 11:45:00,67.2,66.0,29.52,NNE,15,0.0,2.0,96,0.00,,,0.57,Wunderground v.1.15,2013-06-29 15:45:00,
2013-06-29 11:50:00,67.7,66.5,29.52,North,5,0.0,1.0,96,0.00,,,0.57,Wunderground v.1.15,2013-06-29 15:50:00,
2013-06-29 11:55:00,68.1,66.9,29.52,NNE,13,1.0,3.0,96,0.00,,,0.57,Wunderground v.1.15,2013-06-29 15:55:00,
2013-06-29 12:00:00,67.9,65.5,29.52,NNE,19,6.0,6.0,92,0.00,,,0.57,Wunderground v.1.15,2013-06-29 16:00:00,
2013-06-29 12:05:00,68.4,66.9,29.52,NE,36,3.0,6.0,95,0.00,,,0.57,Wunderground v.1.15,2013-06-29 16:05:00,
2013-06-29 12:10:00,69.0,66.9,29.52,North,5,7.0,8.0,93,0.00,,,0.57,Wunderground v.1.15,2013-06-29 16:10:00,
2013-06-29 12:15:00,69.3,66.6,29.52,North,360,4.0,8.0,91,0.00,,,0.57,Wunderground v.1.15,2013-06-29 16:15:00,
2013-06-29 12:20:00,69.7,66.3,29.52,ENE,58,4.0,6.0,89,0.00,,,0.57,Wunderground v.1.15,2013-06-29 16:20:00,
2013-06-29 12:25:00,70.2,66.8,29.52,NE,44,4.0,6.0,89,0.00,,,0.57,Wunderground v.1.15,2013-06-29 16:25:00,
2013-06-29 12:30:00,70.7,66.6,29.52,North,5,4.0,4.0,87,0.00,,,0.57,Wunderground v.1.15,2013-06-29 16:30:00,
2013-06-29 12:35:00,71.0,66.3,29.52,NNE,17,6.0,7.0,85,0.00,,,0.57,Wunderground v.1.15,2013-06-29 16:35:00,
2013-06-29 12:40:00,71.6,66.8,29.52,North,5,8.0,8.0,85,0.00,,,0.57,Wunderground v.1.15,2013-06-29 16:40:00,
2013-06-29 12:45:00,71.9,66.8,29.52,NNE,32,3.0,9.0,84,0.00,,,0.57,Wunderground v.1.15,2013-06-29 16:45:00,
2013-06-29 12:50:00,72.1,66.3,29.53,NNE,24,0.0,3.0,82,0.00,,,0.57,Wunderground v.1.15,2013-06-29 16:50:00,
2013-06-29 12:55:00,72.7,66.5,29.52,ENE,67,1.0,6.0,81,0.00,,,0.57,Wunderground v.1.15,2013-06-29 16:55:00,
2013-06-29 13:00:00,73.1,65.8,29.53,ENE,67,0.0,2.0,78,0.00,,,0.57,Wunderground v.1.15,2013-06-29 17:00:00,
2013-06-29 13:05:00,73.6,66.3,29.53,NNE,17,1.0,6.0,78,0.00,,,0.57,Wunderground v.1.15,2013-06-29 17:05:00,
2013-06-29 13:10:00,74.1,66.4,29.53,NNE,19,2.0,2.0,77,0.00,,,0.58,Wunderground v.1.15,2013-06-29 17:10:00,
2013-06-29 13:16:00,74.3,65.5,29.52,West,259,1.0,7.0,74,0.00,,,0.58,Wunderground v.1.15,2013-06-29 17:16:00,
2013-06-29 13:20:00,74.1,66.4,29.53,ENE,63,4.0,7.0,77,0.00,,,0.58,Wunderground v.1.15,2013-06-29 17:20:00,
2013-06-29 13:25:00,74.4,66.7,29.53,North,355,2.0,7.0,77,0.00,,,0.58,Wunderground v.1.15,2013-06-29 17:25:00,
2013-06-29 13:30:00,73.9,66.2,29.53,North,360,5.0,9.0,77,0.00,,,0.58,Wunderground v.1.15,2013-06-29 17:30:00,
2013-06-29 13:35:00,73.6,66.7,29.53,North,10,10.0,12.0,79,0.00,,,0.58,Wunderground v.1.15,2013-06-29 17:35:00,
2013-06-29 13:40:00,73.1,66.2,29.53,NNE,20,7.0,11.0,79,0.00,,,0.58,Wunderground v.1.15,2013-06-29 17:40:00,
2013-06-29 13:45:00,72.6,66.1,29.53,North,11,8.0,11.0,80,0.00,,,0.58,Wunderground v.1.15,2013-06-29 17:45:00,
2013-06-29 13:50:00,72.1,65.6,29.53,NNE,14,9.0,11.0,80,0.00,,,0.58,Wunderground v.1.15,2013-06-29 17:50:00,
2013-06-29 13:55:00,72.0,65.8,29.53,North,5,5.0,12.0,81,0.00,,,0.58,Wunderground v.1.15,2013-06-29 17:55:00,
2013-06-29 14:00:00,72.0,65.8,29.53,North,11,8.0,10.0,81,0.00,,,0.58,Wunderground v.1.15,2013-06-29 18:00:00,
2013-06-29 14:05:00,72.1,65.6,29.53,NNE,28,7.0,11.0,80,0.00,,,0.58,Wunderground v.1.15,2013-06-29 18:05:00,
2013-06-29 14:10:00,72.1,65.6,29.53,NNE,24,8.0,10.0,80,0.00,,,0.58,Wunderground v.1.15,2013-06-29 18:10:00,
2013-06-29 14:15:00,72.0,65.8,29.53,NNE,23,5.0,10.0,81,0.00,,,0.58,Wunderground v.1.15,2013-06-29 18:15:00,
2013-06-29 14:20:00,72.2,65.3,29.54,NE,54,1.0,9.0,79,0.00,,,0.58,Wunderground v.1.15,2013-06-29 18:20:00,
2013-06-29 14:25:00,71.8,65.3,29.54,North,355,5.0,9.0,80,0.00,,,0.58,Wunderground v.1.15,2013-06-29 18:25:00,
2013-06-29 14:30:00,71.8,65.3,29.54,North,5,6.0,9.0,80,0.00,,,0.58,Wunderground v.1.15,2013-06-29 18:30:00,
2013-06-29 14:36:00,72.2,65.7,29.55,NNW,336,4.0,11.0,80,0.00,,,0.58,Wunderground v.1.15,2013-06-29 18:36:00,
2013-06-29 14:41:00,72.0,64.8,29.55,NE,40,3.0,8.0,78,0.00,,,0.58,Wunderground v.1.15,2013-06-29 18:41:00,
2013-06-29 14:46:00,71.9,64.7,29.55,North,360,9.0,10.0,78,0.00,,,0.58,Wunderground v.1.15,2013-06-29 18:46:00,
2013-06-29 14:51:00,71.8,65.3,29.55,NNE,20,4.0,9.0,80,0.00,,,0.58,Wunderground v.1.15,2013-06-29 18:51:00,
2013-06-29 14:56:00,71.6,64.4,29.55,North,11,4.0,10.0,78,0.00,,,0.58,Wunderground v.1.15,2013-06-29 18:56:00,
2013-06-29 15:01:00,72.0,65.1,29.55,North,5,4.0,10.0,79,0.00,,,0.58,Wunderground v.1.15,2013-06-29 19:01:00,
2013-06-29 15:06:00,72.6,65.0,29.55,North,5,8.0,10.0,77,0.00,,,0.58,Wunderground v.1.15,2013-06-29 19:06:00,
2013-06-29 15:11:00,72.8,65.2,29.55,WNW,288,0.0,5.0,77,0.00,,,0.58,Wunderground v.1.15,2013-06-29 19:11:00,
2013-06-29 15:16:00,72.8,64.8,29.55,North,11,6.0,10.0,76,0.00,,,0.58,Wunderground v.1.15,2013-06-29 19:16:00,
2013-06-29 15:21:00,73.1,64.7,29.55,North,9,3.0,8.0,75,0.00,,,0.58,Wunderground v.1.15,2013-06-29 19:21:00,
2013-06-29 15:26:00,73.3,65.7,29.55,North,5,2.0,9.0,77,0.00,,,0.58,Wunderground v.1.15,2013-06-29 19:26:00,
2013-06-29 15:31:00,73.5,64.7,29.56,North,5,7.0,11.0,74,0.00,,,0.58,Wunderground v.1.15,2013-06-29 19:31:00,
2013-06-29 15:36:00,73.5,65.1,29.56,North,360,2.0,11.0,75,0.00,,,0.58,Wunderground v.1.15,2013-06-29 19:36:00,
2013-06-29 15:41:00,73.9,65.1,29.56,NNE,12,4.0,9.0,74,0.00,,,0.58,Wunderground v.1.15,2013-06-29 19:41:00,
2013-06-29 15:46:00,74.2,64.6,29.56,NNE,17,5.0,9.0,72,0.00,,,0.58,Wunderground v.1.15,2013-06-29 19:46:00,
2013-06-29 15:51:00,74.6,65.0,29.56,NNW,335,2.0,9.0,72,0.00,,,0.58,Wunderground v.1.15,2013-06-29 19:51:00,
2013-06-29 15:56:00,74.9,65.7,29.56,NNW,347,6.0,9.0,73,0.00,,,0.58,Wunderground v.1.15,2013-06-29 19:56:00,
2013-06-29 16:01:00,75.3,64.8,29.56,NNE,28,4.0,5.0,70,0.00,,,0.58,Wunderground v.1.15,2013-06-29 20:01:00,
2013-06-29 16:06:00,75.7,65.2,29.56,NNW,347,2.0,6.0,70,0.00,,,0.58,Wunderground v.1.15,2013-06-29 20:06:00,
2013-06-29 16:11:00,76.2,64.9,29.56,North,9,1.0,6.0,68,0.00,,,0.58,Wunderground v.1.15,2013-06-29 20:11:00,
2013-06-29 16:16:00,76.8,65.4,29.56,North,360,3.0,7.0,68,0.00,,,0.58,Wunderground v.1.15,2013-06-29 20:16:00,
2013-06-29 16:21:00,77.3,65.5,29.56,NNE,12,6.0,6.0,67,0.00,,,0.58,Wunderground v.1.15,2013-06-29 20:21:00,
2013-06-29 16:26:00,77.6,64.9,29.56,North,9,0.0,6.0,65,0.00,,,0.58,Wunderground v.1.15,2013-06-29 20:26:00,
2013-06-29 16:31:00,77.6,64.9,29.56,NNE,15,3.0,6.0,65,0.00,,,0.58,Wunderground v.1.15,2013-06-29 20:31:00,
2013-06-29 16:36:00,77.4,64.7,29.56,North,5,4.0,8.0,65,0.00,,,0.58,Wunderground v.1.15,2013-06-29 20:36:00,
2013-06-29 16:41:00,76.8,65.0,29.56,NNE,14,4.0,6.0,67,0.00,,,0.58,Wunderground v.1.15,2013-06-29 20:41:00,
2013-06-29 16:46:00,76.6,64.4,29.56,North,11,5.0,9.0,66,0.00,,,0.58,Wunderground v.1.15,2013-06-29 20:46:00,
2013-06-29 16:51:00,76.4,64.6,29.57,North,11,4.0,7.0,67,0.00,,,0.58,Wunderground v.1.15,2013-06-29 20:51:00,
2013-06-29 16:56:00,76.4,64.6,29.56,North,9,3.0,8.0,67,0.00,,,0.58,Wunderground v.1.15,2013-06-29 20:56:00,
2013-06-29 17:01:00,76.6,65.2,29.56,North,9,3.0,8.0,68,0.00,,,0.58,Wunderground v.1.15,2013-06-29 21:01:00,
2013-06-29 17:06:00,77.1,65.3,29.57,North,11,0.0,8.0,67,0.00,,,0.58,Wunderground v.1.15,2013-06-29 21:06:00,
2013-06-29 17:11:00,77.3,64.6,29.57,NNW,327,2.0,4.0,65,0.00,,,0.58,Wunderground v.1.15,2013-06-29 21:11:00,
2013-06-29 17:16:00,77.0,64.3,29.57,North,9,2.0,4.0,65,0.00,,,0.58,Wunderground v.1.15,2013-06-29 21:16:00,
2013-06-29 17:21:00,77.0,65.2,29.57,North,355,0.0,2.0,67,0.00,,,0.58,Wunderground v.1.15,2013-06-29 21:21:00,
2013-06-29 17:27:00,76.8,63.7,29.57,North,355,0.0,4.0,64,0.00,,,0.58,Wunderground v.1.15,2013-06-29 21:27:00,
2013-06-29 17:32:00,76.8,65.0,29.57,NNW,342,2.0,5.0,67,0.00,,,0.58,Wunderground v.1.15,2013-06-29 21:32:00,
2013-06-29 17:37:00,77.2,64.5,29.57,North,11,4.0,7.0,65,0.00,,,0.58,Wunderground v.1.15,2013-06-29 21:37:00,
2013-06-29 17:42:00,77.5,63.9,29.57,NW,320,3.0,7.0,63,0.00,,,0.58,Wunderground v.1.15,2013-06-29 21:42:00,
2013-06-29 17:47:00,76.4,64.2,29.57,ENE,73,4.0,7.0,66,0.00,,,0.58,Wunderground v.1.15,2013-06-29 21:47:00,
2013-06-29 17:52:00,76.5,64.7,29.57,North,9,5.0,8.0,67,0.00,,,0.58,Wunderground v.1.15,2013-06-29 21:52:00,
2013-06-29 17:57:00,77.0,64.3,29.57,NNE,24,6.0,8.0,65,0.00,,,0.58,Wunderground v.1.15,2013-06-29 21:57:00,
2013-06-29 18:02:00,77.2,65.0,29.57,East,79,1.0,5.0,66,0.00,,,0.58,Wunderground v.1.15,2013-06-29 22:02:00,
2013-06-29 18:07:00,77.2,65.4,29.58,NNE,16,3.0,5.0,67,0.00,,,0.58,Wunderground v.1.15,2013-06-29 22:07:00,
2013-06-29 18:12:00,77.3,64.6,29.58,NNE,15,2.0,5.0,65,0.00,,,0.58,Wunderground v.1.15,2013-06-29 22:12:00,
2013-06-29 18:17:00,77.5,64.4,29.58,North,5,0.0,5.0,64,0.00,,,0.58,Wunderground v.1.15,2013-06-29 22:17:00,
2013-06-29 18:22:00,77.5,64.4,29.58,North,5,3.0,4.0,64,0.00,,,0.58,Wunderground v.1.15,2013-06-29 22:22:00,
2013-06-29 18:27:00,77.1,63.1,29.58,NE,37,2.0,8.0,62,0.00,,,0.58,Wunderground v.1.15,2013-06-29 22:27:00,
2013-06-29 18:33:00,76.8,63.2,29.58,North,9,3.0,7.0,63,0.00,,,0.58,Wunderground v.1.15,2013-06-29 22:33:00,
2013-06-29 18:38:00,76.9,63.3,29.58,North,360,5.0,7.0,63,0.00,,,0.58,Wunderground v.1.15,2013-06-29 22:38:00,
2013-06-29 18:43:00,76.6,62.6,29.58,North,5,4.0,6.0,62,0.00,,,0.58,Wunderground v.1.15,2013-06-29 22:43:00,
2013-06-29 18:48:00,76.5,62.5,29.58,NNE,30,1.0,6.0,62,0.00,,,0.58,Wunderground v.1.15,2013-06-29 22:48:00,
2013-06-29 18:53:00,76.6,63.1,29.59,NE,48,2.0,3.0,63,0.00,,,0.58,Wunderground v.1.15,2013-06-29 22:53:00,
2013-06-29 18:58:00,76.7,63.2,29.59,NE,38,1.0,4.0,63,0.00,,,0.58,Wunderground v.1.15,2013-06-29 22:58:00,
2013-06-29 19:03:00,76.4,62.4,29.59,NNE,21,0.0,5.0,62,0.00,,,0.58,Wunderground v.1.15,2013-06-29 23:03:00,
2013-06-29 19:08:00,76.1,63.0,29.59,NNE,22,0.0,5.0,64,0.00,,,0.58,Wunderground v.1.15,2013-06-29 23:08:00,
2013-06-29 19:13:00,75.7,64.4,29.59,NNE,22,0.0,1.0,68,0.00,,,0.58,Wunderground v.1.15,2013-06-29 23:13:00,
2013-06-29 19:18:00,75.2,64.3,29.60,NNE,22,0.0,1.0,69,0.00,,,0.58,Wunderground v.1.15,2013-06-29 23:18:00,
2013-06-29 19:23:00,74.9,64.9,29.60,NNE,22,0.0,0.0,71,0.00,,,0.58,Wunderground v.1.15,2013-06-29 23:23:00,
2013-06-29 19:28:00,74.1,63.7,29.60,NNE,22,0.0,0.0,70,0.00,,,0.58,Wunderground v.1.15,2013-06-29 23:28:00,
2013-06-29 19:33:00,73.5,63.9,29.60,NNE,22,0.0,0.0,72,0.00,,,0.58,Wunderground v.1.15,2013-06-29 23:33:00,
2013-06-29 19:38:00,73.4,64.6,29.60,NNE,22,0.0,0.0,74,0.00,,,0.58,Wunderground v.1.15,2013-06-29 23:38:00,
2013-06-29 19:44:00,72.8,63.6,29.60,NNE,22,0.0,0.0,73,0.00,,,0.58,Wunderground v.1.15,2013-06-29 23:44:00,
2013-06-29 19:49:00,72.3,63.5,29.61,NNE,22,0.0,0.0,74,0.00,,,0.58,Wunderground v.1.15,2013-06-29 23:49:00,
2013-06-29 19:54:00,71.8,63.1,29.61,NNE,22,0.0,0.0,74,0.00,,,0.58,Wunderground v.1.15,2013-06-29 23:54:00,
2013-06-29 19:59:00,71.2,62.9,29.61,NNE,22,0.0,0.0,75,0.00,,,0.58,Wunderground v.1.15,2013-06-29 23:59:00,
2013-06-29 20:04:00,70.5,62.2,29.61,NNE,22,0.0,0.0,75,0.00,,,0.58,Wunderground v.1.15,2013-06-30 00:04:00,
2013-06-29 20:09:00,70.2,62.6,29.61,NNE,22,0.0,0.0,77,0.00,,,0.58,Wunderground v.1.15,2013-06-30 00:09:00,
2013-06-29 20:14:00,70.0,63.2,29.61,NNE,22,0.0,0.0,79,0.00,,,0.58,Wunderground v.1.15,2013-06-30 00:14:00,
2013-06-29 20:19:00,69.9,62.7,29.61,NNE,22,0.0,0.0,78,0.00,,,0.58,Wunderground v.1.15,2013-06-30 00:19:00,
2013-06-29 20:24:00,69.8,63.3,29.61,NNE,22,0.0,0.0,80,0.00,,,0.58,Wunderground v.1.15,2013-06-30 00:24:00,
2013-06-29 20:29:00,69.7,63.3,29.61,NNE,22,0.0,0.0,80,0.00,,,0.58,Wunderground v.1.15,2013-06-30 00:29:00,
2013-06-29 20:34:00,69.5,63.4,29.61,NNE,22,0.0,0.0,81,0.00,,,0.58,Wunderground v.1.15,2013-06-30 00:34:00,
2013-06-29 20:39:00,69.2,63.5,29.61,NNE,22,0.0,0.0,82,0.00,,,0.58,Wunderground v.1.15,2013-06-30 00:39:00,
2013-06-29 20:44:00,69.0,63.6,29.61,NNE,22,0.0,0.0,83,0.00,,,0.58,Wunderground v.1.15,2013-06-30 00:44:00,
2013-06-29 20:49:00,68.7,63.7,29.61,NNE,22,0.0,0.0,84,0.00,,,0.58,Wunderground v.1.15,2013-06-30 00:49:00,
2013-06-29 20:54:00,68.3,63.3,29.61,NNE,22,0.0,0.0,84,0.00,,,0.58,Wunderground v.1.15,2013-06-30 00:54:00,
2013-06-29 20:59:00,67.8,63.1,29.61,NNE,22,0.0,0.0,85,0.00,,,0.58,Wunderground v.1.15,2013-06-30 00:59:00,
2013-06-29 21:04:00,67.4,63.1,29.62,NNE,22,0.0,0.0,86,0.00,,,0.58,Wunderground v.1.15,2013-06-30 01:04:00,
2013-06-29 21:09:00,66.9,62.9,29.62,NNE,22,0.0,0.0,87,0.00,,,0.58,Wunderground v.1.15,2013-06-30 01:09:00,
2013-06-29 21:14:00,66.4,62.7,29.62,NNE,22,0.0,2.0,88,0.00,,,0.58,Wunderground v.1.15,2013-06-30 01:14:00,
2013-06-29 21:19:00,65.9,62.6,29.62,NNE,22,0.0,2.0,89,0.00,,,0.58,Wunderground v.1.15,2013-06-30 01:19:00,
2013-06-29 21:24:00,65.6,62.3,29.62,NNE,22,0.0,0.0,89,0.00,,,0.58,Wunderground v.1.15,2013-06-30 01:24:00,
2013-06-29 21:29:00,65.4,62.4,29.63,NNE,22,0.0,0.0,90,0.00,,,0.58,Wunderground v.1.15,2013-06-30 01:29:00,
2013-06-29 21:34:00,65.2,62.5,29.63,NNE,22,0.0,0.0,91,0.00,,,0.58,Wunderground v.1.15,2013-06-30 01:34:00,
2013-06-29 21:40:00,65.0,62.6,29.63,NNE,22,0.0,0.0,92,0.00,,,0.58,Wunderground v.1.15,2013-06-30 01:40:00,
2013-06-29 21:45:00,64.9,62.5,29.63,NNE,22,0.0,0.0,92,0.00,,,0.58,Wunderground v.1.15,2013-06-30 01:45:00,
2013-06-29 21:50:00,64.8,62.4,29.64,NNE,22,0.0,0.0,92,0.00,,,0.58,Wunderground v.1.15,2013-06-30 01:50:00,
2013-06-29 21:55:00,64.8,62.7,29.64,NNE,22,0.0,0.0,93,0.00,,,0.58,Wunderground v.1.15,2013-06-30 01:55:00,
2013-06-29 22:00:00,64.7,62.6,29.64,NNE,22,0.0,0.0,93,0.00,,,0.58,Wunderground v.1.15,2013-06-30 02:00:00,
2013-06-29 22:05:00,64.6,62.5,29.64,NNE,22,0.0,0.0,93,0.00,,,0.58,Wunderground v.1.15,2013-06-30 02:05:00,
2013-06-29 22:10:00,64.6,62.8,29.64,NNE,22,0.0,0.0,94,0.00,,,0.58,Wunderground v.1.15,2013-06-30 02:10:00,
2013-06-29 22:15:00,64.6,62.8,29.64,NNE,22,0.0,0.0,94,0.00,,,0.58,Wunderground v.1.15,2013-06-30 02:15:00,
2013-06-29 22:20:00,64.7,62.9,29.65,NNE,22,0.0,0.0,94,0.00,,,0.58,Wunderground v.1.15,2013-06-30 02:20:00,
2013-06-29 22:25:00,64.6,62.8,29.65,NNE,22,0.0,0.0,94,0.00,,,0.58,Wunderground v.1.15,2013-06-30 02:25:00,
2013-06-29 22:30:00,64.5,62.4,29.65,NNE,22,0.0,0.0,93,0.00,,,0.58,Wunderground v.1.15,2013-06-30 02:30:00,
2013-06-29 22:35:00,64.4,62.3,29.65,NNE,22,0.0,0.0,93,0.00,,,0.58,Wunderground v.1.15,2013-06-30 02:35:00,
2013-06-29 22:40:00,64.2,62.1,29.65,NNE,22,0.0,0.0,93,0.00,,,0.58,Wunderground v.1.15,2013-06-30 02:40:00,
2013-06-29 22:45:00,64.1,62.3,29.65,NNE,22,0.0,0.0,94,0.00,,,0.58,Wunderground v.1.15,2013-06-30 02:45:00,
2013-06-29 22:50:00,64.0,62.2,29.65,NNE,22,0.0,0.0,94,0.00,,,0.58,Wunderground v.1.15,2013-06-30 02:50:00,
2013-06-29 22:55:00,64.0,62.2,29.65,NNE,22,0.0,0.0,94,0.00,,,0.58,Wunderground v.1.15,2013-06-30 02:55:00,
2013-06-29 23:01:00,64.0,62.2,29.66,NNE,22,0.0,0.0,94,0.00,,,0.58,Wunderground v.1.15,2013-06-30 03:01:00,
2013-06-29 23:06:00,64.0,62.2,29.65,NNE,22,0.0,0.0,94,0.00,,,0.58,Wunderground v.1.15,2013-06-30 03:06:00,
2013-06-29 23:11:00,64.0,62.5,29.66,NNE,22,0.0,0.0,95,0.00,,,0.58,Wunderground v.1.15,2013-06-30 03:11:00,
2013-06-29 23:16:00,63.9,62.4,29.65,NNE,22,0.0,0.0,95,0.00,,,0.58,Wunderground v.1.15,2013-06-30 03:16:00,
2013-06-29 23:21:00,63.8,62.3,29.65,NNE,22,0.0,0.0,95,0.00,,,0.58,Wunderground v.1.15,2013-06-30 03:21:00,
2013-06-29 23:26:00,63.7,62.2,29.65,NNE,22,0.0,0.0,95,0.00,,,0.58,Wunderground v.1.15,2013-06-30 03:26:00,
2013-06-29 23:31:00,63.7,62.2,29.66,NNE,22,0.0,0.0,95,0.00,,,0.58,Wunderground v.1.15,2013-06-30 03:31:00,
2013-06-29 23:36:00,63.8,62.3,29.66,NNE,22,0.0,0.0,95,0.00,,,0.58,Wunderground v.1.15,2013-06-30 03:36:00,
2013-06-29 23:41:00,63.8,62.3,29.66,NNE,22,0.0,0.0,95,0.00,,,0.58,Wunderground v.1.15,2013-06-30 03:41:00,
2013-06-29 23:46:00,63.9,62.7,29.66,NNE,22,0.0,0.0,96,0.00,,,0.58,Wunderground v.1.15,2013-06-30 03:46:00,
2013-06-29 23:51:00,64.1,62.9,29.66,NNE,22,0.0,0.0,96,0.00,,,0.58,Wunderground v.1.15,2013-06-30 03:51:00,
2013-06-29 23:56:00,64.3,63.1,29.66,NNE,22,0.0,0.0,96,0.00,,,0.58,Wunderground v.1.15,2013-06-30 03:56:00,